Location: Fernhill
(41.0167°S, 175.6333°E)
Time: 02:49:57
(UTC+00:00)

COBE Rocket - Pass Details

Date: 08 November 2025
Orbit: 674 x 773 km, 97.1° (Epoch: 15 December)

Event Time Altitude Azimuth Distance (km) Brightness Sun altitude
Exits shadow 07:49:13 - 28° (NNE) 2,537 6.2 -8.0°
Reaches altitude 10° 07:50:09 10° 31° (NNE) 2,165 5.8 -8.2°
Maximum altitude 07:54:47 53° 106° (ESE) 884 4.1 -8.9°
Drops below altitude 10° 07:59:35 10° 182° (S) 2,255 6.9 -9.7°
Sets 08:01:58 0° 186° (S) 3,201 7.8 -10.1°
